Regional Weather Roundup
Issued by NWS

Home | Current Version | Previous Version | Text Only | Print | Product List | Glossary On
Versions: 1 2 3 4 5 6 7 8 9 10 11 12 13 14 15 16 17 18 19 20 21 22 23 24 25 26 27 28 29 30 31 32 33 34 35 36 37 38 39 40 41 42 43 44 45 46 47 48 49 50
000
ASUS42 KTBW 070517
RWRFL
FLORIDA REGIONAL WEATHER ROUNDUP
NATIONAL WEATHER SERVICE TAMPA BAY RUSKIN FL
1200 AM EST SUN FEB 07 2016

NOTE: "FAIR" INDICATES FEW OR NO CLOUDS BELOW 12,000 FEET WITH NO
SIGNIFICANT WEATHER AND/OR OBSTRUCTIONS TO VISIBILITY.


FLZ001>010-012>015-112-114-115-070600-
PANHANDLE FLORIDA

CITY           SKY/WX    TMP DP  RH WIND       PRES   REMARKS
PENSACOLA      CLEAR     40  26  57 NW7       30.24R WCI  35
PENSACOLA NAS  CLEAR     41  28  60 NW7       30.24S WCI  36
MILTON NAS     PTCLDY    41  25  53 NW6       30.23  WCI  37
CRESTVIEW      CLEAR     41  24  51 N7        30.23F WCI  36
DUKE FIELD     FAIR      39  25  57 NW5       30.20F WCI  35
VALPARAISO     PTCLDY    42  23  47 N6        30.21S WCI  38
MARY ESTHER    CLEAR     39  24  56 N5        30.21S WCI  35
TRI COUNTY     FAIR      38  36  92 CALM      30.22F
PANAMA CITY    FAIR      42  36  79 NW3       30.20F
TYNDALL AFB    MOCLDY    46  35  64 NE3       30.20F
APALACHICOLA   CLOUDY    46  36  68 N3        30.19F

STATION/POSITION SKY/WX   TEMP    WIND        PRES    WAVE   SWELL
                          AIR SEA DIR/SP/G            HT/PER HT/PER
                          (F)     (DEG/KT/KT) (MB)    (FT/S) (FT/S)
30.1N   87.6W              53 62  360/ 17/ 19 1023.3F   2/ 3
28.8N   86.0W              58 69  340/ 14/ 17 1021.9F   3/ 5
PANAMA CITY BEAC           47 62  360/  4/  6 1023.4S
CAPE SAN BLAS    NOT AVBL
TOWER C          NOT AVBL
28.5N   84.5W              56 69  350/ 19/ 25 1020.5F   3/ 5

$$
FLZ011-016>038-118-127-128-134-139-239-070600-
NORTH FLORIDA

CITY           SKY/WX    TMP DP  RH WIND       PRES   REMARKS
MARIANNA       MOCLDY    41  34  76 CALM      30.20F
TALLAHASSEE    MOCLDY    46  33  60 NW10      30.18F WCI  41
PERRY          CLOUDY    44  38  80 NW7       30.15F WCI  40
LIVE OAK         N/A     43  43 100 NW3       30.15F
CROSS CITY       N/A     44  42  93 N6        30.11F WCI  41
LAKE CITY      DRIZZLE   41  41 100 NW9       30.11F WCI  35
GAINESVILLE    LGT RAIN  42  41  96 NW12      30.09S FOG     WCI  36
WILLISTON      CLOUDY    45  43  93 NW9       30.10F WCI  40
KEYSTONE HEIGH CLOUDY    43  43 100 N10       30.07F WCI  37
PALATKA        CLOUDY    43  43 100 N9G20     30.06S FOG     WCI  37
MAYPORT NAS    CLOUDY    45  42  89 N12G24    30.03F WCI  39
JACKSONVILLE   RAIN      42  41  96 N10       30.06F FOG     WCI  36
JAX NAS        LGT RAIN  44  41  89 NW14      30.06F WCI  37
JAX CRAIG      CLOUDY    44  42  93 N15       30.05F WCI  37
JAX CECIL      LGT RAIN  41  41 100 NW10      30.07F FOG     WCI  35
FERNANDINA BEA CLOUDY    45  43  93 N9G16     30.04F WCI  40
ST AUGUSTINE   CLOUDY    45  44  97 NW14      30.03F WCI  38
PALM COAST     CLOUDY    46  46  99 NW9G18    30.01S WCI  41

STATION/POSITION SKY/WX   TEMP    WIND        PRES    WAVE   SWELL
                          AIR SEA DIR/SP/G            HT/PER HT/PER
                          (F)     (DEG/KT/KT) (MB)    (FT/S) (FT/S)
SHELL POINT                43     340/  7/ 11 1020.6
KEATON BEACH               44     330/  7/  9 1020.5F
CEDAR KEY                  45     350/  7/ 10 1019.9F
FERNANDINA                 44 56  310/  6/ 13 1018.7R
30.7N   81.3W                 57                N/A     7/ 7   2/11
MAYPORT                    45 57  320/  9/ 13 1017.9F
31.4N   80.9W              47 55   30/ 27/ 33 1015.8F   8/ 6   2/11
ST AUGUSTINE               45 57  310/ 12/ 15 1017.0F

$$
FLZ040-043>046-052-053-057-058-063-144-070600-
INTERIOR CENTRAL FLORIDA

CITY           SKY/WX    TMP DP  RH WIND       PRES   REMARKS
OCALA          CLOUDY    45  39  81 N10       30.08F WCI  39
THE VILLAGES     N/A     46  46 100 NW10      29.96F WCI  41
LEESBURG       CLOUDY    48  46  93 NW12G22   30.06S WCI  43
SANFORD        LGT RAIN  50  48  93 NW14      30.01F WCI  45
ORLANDO EXEC   LGT RAIN  51  48  89 W12       30.02F
ORLANDO INTL   LGT RAIN  50  48  93 NW10      30.01F
WINTER HAVEN   CLOUDY    49  48  97 W13       30.05F WCI  44
LAKELAND       CLOUDY    46  46 100 NW9       30.05F WCI  42
BARTOW         CLOUDY    48  48 100 W9        30.05F WCI  44
OKEECHOBEE     CLOUDY    54  54 100 W15       30.01F FOG

$$
FLZ041-047-054-059-064-141-147-070600-
EAST CENTRAL FLORIDA

CITY           SKY/WX    TMP DP  RH WIND       PRES   REMARKS
DAYTONA BEACH  LGT RAIN  50  48  93 W13G25    30.02S
DELAND           N/A     48  46  93 NW13      30.03S WCI  43
JFK SPACE CTR  LGT RAIN  55  54  94 NW13      29.96F
CAPE CANAVERAL CLOUDY    56  54  94 NW16G24   29.95F
PATRICK AFB    CLOUDY    57  55  95 NW16      29.97S
MELBOURNE      CLOUDY    56  54  93 W16       29.98F
VERO BEACH     LGT RAIN  56  55  97 W15       29.97F
FT PIERCE      LGT RAIN  56  56 100 W16       29.97F
STUART         RAIN      61  55  82 W14G22    29.98F

STATION/POSITION SKY/WX   TEMP    WIND        PRES    WAVE   SWELL
                          AIR SEA DIR/SP/G            HT/PER HT/PER
                          (F)     (DEG/KT/KT) (MB)    (FT/S) (FT/S)
28.5N   80.2W              63 74  290/ 21/ 27 1014.4F
28.9N   78.5W              67 75              1014.3F
TRIDENT PIER               57 65  290/  8/ 15 1015.4F
28.4N   80.5W                 66                N/A     3/10   2/11
27.5N   80.2W                 74                N/A     5/10   2/11

$$
FLZ050-056-061-142-242-148-248-149-249-151-251-155-255-
160-260-070600-
WEST CENTRAL FLORIDA

CITY           SKY/WX    TMP DP  RH WIND       PRES   REMARKS
CRYSTAL RIVER  DRIZZLE   45  43  93 NW5       30.10F WCI  42
INVERNESS      CLOUDY    45  45 100 NW8       30.09S WCI  40
BROOKSVILLE    CLOUDY    47  44  90 NW10      30.09F WCI  42
ZEPHYRHILLS    CLOUDY    46  45  95 NW8       30.07F WCI  42
CLEARWATER AIR MOCLDY    50  45  81 NW13G20   30.08S
ST PETE CLEARW CLOUDY    51  46  83 NW16      30.08F
TAMPA INTL     CLOUDY    50  48  93 NW10      30.08F
TAMPA EXEC     CLOUDY    50  46  87 NW6       30.08F
PLANT CITY     CLOUDY    50  48  93 NW9       30.08F
MACDILL AFB    MOCLDY    52  52 100 N14G22    30.06F
PETER O KNIGHT CLOUDY    52  50  93 NW7       30.07F
ST PETERSBURG  CLOUDY    52  49  89 N9        30.06F
SARASOTA       CLOUDY    52  49  89 N8        30.06F
VENICE         CLOUDY    55  50  82 NW14G20   30.08F

STATION/POSITION SKY/WX   TEMP    WIND        PRES    WAVE   SWELL
                          AIR SEA DIR/SP/G            HT/PER HT/PER
                          (F)     (DEG/KT/KT) (MB)    (FT/S) (FT/S)
CEDAR KEY                  45     350/  7/ 10 1019.9F
28.5N   84.5W              56 69  350/ 19/ 25 1020.5F   3/ 5
27.3N   84.2W                 71                N/A     5/ 6
CLEARWATER BEACH           53 59  340/ 20/ 23 1019.0F
MIDDLE TAMPA BAY           52     330/  9/ 13 1019.2F
VENICE                     57 63  330/ 23/ 26 1017.8F

$$
FLZ066-069-070-075>078-162-262-165-265-070600-
SOUTHWEST FLORIDA AND KEYS

CITY           SKY/WX    TMP DP  RH WIND       PRES   REMARKS
PUNTA GORDA    CLOUDY    52  52 100 NW12      30.07S
FT MYERS       CLOUDY    54  51  90 NW15      30.05F
SOUTHWEST INTL CLOUDY    55  50  83 NW12      30.05F
NAPLES         CLOUDY    57  53  86 NW14G20   30.05F
MARCO ISLAND   CLOUDY    57  52  82 N10       30.04S
MARATHON       CLOUDY    64  59  83 NW10      30.02F
KEY WEST NAS   CLOUDY   N/A N/A N/A NW15      30.04F
KEY WEST INTL  LGT RAIN  65  61  87 NW14      30.04F

STATION/POSITION SKY/WX   TEMP    WIND        PRES    WAVE   SWELL
                          AIR SEA DIR/SP/G            HT/PER HT/PER
                          (F)     (DEG/KT/KT) (MB)    (FT/S) (FT/S)
VENICE                     57 63  330/ 23/ 26 1017.8F
NAPLES                        66              1017.2F
26.0N   85.6W              64 80  350/ 14/ 19 1020.0R   3/ 6   2/ 6
DRY TORTUGAS                                    N/A
SAND KEY                   65     350/ 19/ 24 1017.6F
LONG KEY                   64 70  340/ 15/ 17 1017.1F
MOLASSES REEF              65 77  330/ 11/ 12 1015.8F

$$
FLZ067-068-071>074-168-172>174-070600-
SOUTHEAST FLORIDA

CITY           SKY/WX    TMP DP  RH WIND       PRES   REMARKS
W PALM BEACH   LGT RAIN  61  59  93 W10       29.98F
FT LAUDER-EXEC CLOUDY    62  61  96 W9        29.99F
FT LAUDERDALE  CLOUDY    62  61  96 W9        29.98F
POMPANO BEACH  LGT RAIN  61  61 100 W10       29.98F FOG
PEMBROKE PINES LGT RAIN  62  60  93 NW7       29.99F
OPA LOCKA      LGT RAIN  63  61  93 NW9       30.00F
MIAMI          LGT RAIN  62  62 100 N5        29.98F FOG
WEST KENDALL   LGT RAIN  62  61  96 NW13      29.99F
HOMESTEAD      MOCLDY    63  61  94 NW10      29.99F

STATION/POSITION SKY/WX   TEMP    WIND        PRES    WAVE   SWELL
                          AIR SEA DIR/SP/G            HT/PER HT/PER
                          (F)     (DEG/KT/KT) (MB)    (FT/S) (FT/S)
PORT EVERGLADES            63     290/ 14/ 19 1014.8F
VIRGINIA KEY               63 73  290/  6/ 10 1016.5F
LAKE WORTH                 62 75  280/  7/ 12 1015.4F
SETTLEMENT POINT           68     280/ 19/ 21 1C1F1M1C2F2M2C3F3C4F4M3C5F5M4C6F6M5C7F7M6C8!


USA.gov is the U.S. government's official web portal to all federal, state and local government web resources and services.